Find Local Weather

World > North America > United States > Florida

Coconut Creek, Florida Regional Weather

Lat: 26.27N, Lon: 80.19W
Wx Zone: FLZ072
Warning FLW WEATHER ALERT - (More Info. Click Here) Warning
Feedback
Expires:201812191100;;021891
ASUS42 KTBW 191016
RWRFL 
FLORIDA REGIONAL WEATHER ROUNDUP
NATIONAL WEATHER SERVICE TAMPA BAY RUSKIN FL
500 AM EST WED DEC 19 2018

NOTE: "FAIR" INDICATES FEW OR NO CLOUDS BELOW 12,000 FEET WITH NO
SIGNIFICANT WEATHER AND/OR OBSTRUCTIONS TO VISIBILITY.


FLZ067-068-071>074-168-172>174-191100-
SOUTHEAST FLORIDA 
  
CITY           SKY/WX    TMP DP  RH WIND       PRES   REMARKS
W PALM BEACH   FAIR      57  53  86 CALM      30.04F                  
FT LAUDER-EXEC FAIR      59  59 100 W5        30.03S                  
FT LAUDERDALE  MOCLDY    63  61  93 CALM      30.02S                  
POMPANO BEACH  FAIR      60  56  86 NW3       30.03S                  
PEMBROKE PINES FAIR      59  57  93 CALM      30.04S                  
OPA LOCKA      FAIR      60  59  96 CALM      30.03F                  
MIAMI          FAIR      62  61  96 CALM      30.03S                  
WEST KENDALL   FAIR      57  57 100 CALM      30.03S                  
HOMESTEAD      FAIR      59  57  92 CALM      30.02S                  

STATION/POSITION SKY/WX   TEMP    WIND        PRES    WAVE   SWELL
                          AIR SEA DIR/SP/G            HT/PER HT/PER
                          (F)     (DEG/KT/KT) (MB)    (FT/S) (FT/S)
PORT EVERGLADES            68     270/  3/  4 1016.6
VIRGINIA KEY               73 73   80/  6/  9 1016.3F
LAKE WORTH                 66 76  300/  3/  4 1018.0S
FOWEY ROCKS                73 76  100/ 10/ 11 1017.2S
SETTLEMENT POINT           71      70/  9/ 10 1017.4F

$$

  

SKY/WX - Weather  TMP - Temperature  DP - Dew Point  RH - Relative Humidity
WIND - Wind Direction/Speed PRES - Barometric Pressure